Regional Weather Roundup
Issued by NWS

Home | Current Version | Previous Version | Graphics & Text | Print | Product List | Glossary On
Versions: 1 2 3 4 5 6 7 8 9 10 11 12 13 14 15 16 17 18 19 20 21 22 23 24 25 26 27 28 29 30 31 32 33 34 35 36 37 38 39 40 41 42 43 44 45 46 47 48 49 50
000
ASUS43 KLOT 211910
RWRIL

ILLINOIS REGIONAL WEATHER ROUNDUP
NATIONAL WEATHER SERVICE CHICAGO/ROMEOVILLE IL
200 PM CDT THU AUG 21 2014

NOTE: "FAIR" INDICATES FEW OR NO CLOUDS BELOW 12,000 FEET WITH NO
SIGNIFICANT WEATHER AND/OR OBSTRUCTIONS TO VISIBILITY.

* THESE STATIONS ARE NOT UNDER NWS QUALITY CONTROL. THEY ALSO MAY NOT
  REPORT WEATHER SUCH AS PRECIPITATION OR FOG.

ILZ001-002-007-009-015-016-024-212000-
NORTHWEST ILLINOIS

CITY           SKY/WX    TMP DP  RH WIND       PRES   REMARKS
MOLINE         CLOUDY    86  70  58 W8        29.93S HX  90
STERLING*      CLOUDY    81  73  78 W5        29.94S HX  85
SAVANNA*       LGT RAIN  80  71  74 S7        29.94S HX  83
$$

ILZ003-004-008-010-011-017-018-212000-
NORTH CENTRAL ILLINOIS

CITY           SKY/WX    TMP DP  RH WIND       PRES   REMARKS
ROCKFORD       CLOUDY    77  70  79 S3        29.96R THUNDER
FREEPORT*      CLOUDY    75  73  92 CALM      29.98S
ROCHELLE*      CLOUDY    78  71  79 S6        29.95S HX  80
DE KALB*       CLOUDY    78  73  84 S9        29.97S HX  81
PERU*          CLOUDY    85  72  65 SW9       29.95S HX  90
$$

ILZ005-006-012>014-019>023-212000-
NORTHEAST ILLINOIS

CITY           SKY/WX    TMP DP  RH WIND       PRES   REMARKS
CHICAGO-OHARE  LGT RAIN  77  69  76 SE3       29.96S
CHICAGO-MIDWAY CLOUDY    80  74  81 VRB3      29.96F HX  85
AURORA         CLOUDY    81  73  76 S8        29.96S HX  86
LANSING*       CLOUDY    80  72  76 SW6       29.97S HX  83
JOLIET*        CLOUDY    82  71  69 SW6       29.97R HX  85
WAUKEGAN       LGT RAIN  72  71  97 E5        29.96F FOG
DUPAGE AIRPORT CLOUDY    79  73  82 S5        29.96S HX  82
KANKAKEE*      CLOUDY    84  76  75 SW8       29.97S HX  93
WHEELING       CLOUDY    76  72  87 E5        29.97S
MORRIS*        CLOUDY    83  74  73 SW6       29.96R HX  90
ROMEOVILLE*    CLOUDY    80  74  79 S5        29.96S HX  85
NORTHERLY ISL    N/A     77  71  82 SE6         N/A
$$

LMZ740>746-212000-
SOUTHERN LAKE MICHIGAN

STATION/POSITION SKY/WX   TEMP    WIND        PRES    VSBY  WAVE
                          AIR SEA DIR/SP/G                  HT/PER
                          (F)     (DEG/KT/KT) (MB)    (MI)  (FT/S)
SOUTHERN BUOY              69 68  310/  4/  4 1015.9R         0
WAUKEGAN HARBOR            72      70/  7/ 11   N/A
HARRISON CRIB              74     140/  9/ 11   N/A
BURNHAM HARBOR             77     130/  3/  6   N/A
CALUMET HARBOR             78      CALM  /  2 1013.8F
BURNS HARBOR               77     190/  4/  7   N/A
MICHIGAN CITY              76     170/  8/ 10   N/A
MICHIGAN CITY 6N           74 71  110/  2/  4   N/A           0
ST. JOSEPH                 72 71  250/  6/  8   N/A           1/ 3
$$

ILZ025>027-034>036-040-047-049-050-058-095>099-212000-
WEST-CENTRAL ILLINOIS

CITY           SKY/WX    TMP DP  RH WIND       PRES   REMARKS
QUINCY         MOSUNNY   89  74  60 SW12      29.93F HX  98
GALESBURG*     CLOUDY    84  76  75 W6        29.95S HX  93
MACOMB*        PTSUNNY   85  75  71 W5        29.97R HX  94
JACKSONVILLE*  PTSUNNY   89  77  67 S9        29.96F HX 101
PITTSFIELD*    MOSUNNY   90  74  59 SW7       29.96S HX 100
$$

ILZ028>032-037-038-041>044-048-051>054-059>061-212000-
CENTRAL ILLINOIS

CITY           SKY/WX    TMP DP  RH WIND       PRES   REMARKS
PONTIAC        PTSUNNY   88  75  66 SW7       29.96R HX  97
DECATUR        CLOUDY    87  75  67 SW13      29.98F HX  96
PEORIA         PTSUNNY   88  75  65 SW7       29.95S HX  97
LACON*         CLOUDY    84  73  70 S6        29.93F HX  91
LINCOLN*       PTSUNNY   90  74  59 SW7       29.93S HX  99
SPRINGFIELD    CLOUDY    86  75  69 SW8       29.96F HX  95
TAYLORVILLE    CLOUDY    84  73  70 SW9G16    29.97F HX  91
$$

ILZ033-039-045-046-055>057-062-063-212000-
EAST-CENTRAL ILLINOIS

CITY           SKY/WX    TMP DP  RH WIND       PRES   REMARKS
CHAMPAIGN      PTSUNNY   86  76  71 S9        29.99S HX  96
DANVILLE*      RAIN      84  75  74 SW6       29.96F HX  92
RANTOUL*       PTSUNNY   87  73  62 S5        29.99S HX  94
MATTOON        PTSUNNY   86  74  67 SW10      30.00S HX  94
PARIS*         PTSUNNY   86  78  75 SW6       30.01S HX  98
$$

ILZ079-100>102-212000-
SOUTHWEST ILLINOIS

CITY           SKY/WX    TMP DP  RH WIND       PRES   REMARKS
ALTON          PTSUNNY   90  79  70 S9        29.98F HX 105
BELLEVILLE     PTSUNNY   91  78  65 E5        29.98F HX 104
CAHOKIA*       PTSUNNY   92  75  57 S8        29.98F HX 103
SPARTA*        PTSUNNY   90  74  58 S8        30.01F HX  98
$$

ILZ064>066-069>071-074>076-080>082-084>086-088>090-092>094-212000-
SOUTH-CENTRAL ILLINOIS

CITY           SKY/WX    TMP DP  RH WIND       PRES   REMARKS
CARBONDALE     PTSUNNY   88  74  63 S14       30.01F HX  96
CAIRO*         SUNNY     92  73  52 S12       30.04F HX 101
MT. VERNON     PTSUNNY   90  75  62 S9        30.02F HX 100
CENTRALIA*     PTSUNNY   91  72  54 S12       30.01F HX  97
SALEM*         PTSUNNY   89  76  67 S9        30.01F HX 100
$$

ILZ067-068-072-073-078-083-087-091-212000-
SOUTHEAST ILLINOIS

CITY           SKY/WX    TMP DP  RH WIND       PRES   REMARKS
LAWRENCEVILLE  MOSUNNY   89  77  67 SW9       30.01F HX 101
FLORA*         MOSUNNY   86  75  68 SW6       30.02S HX  95
FAIRFIELD*     PTSUNNY   90  79  70 SW7       30.01F HX 105
HARRISBURG*    MOSUNNY   90  74  60 S8        30.04F HX  99
ROBINSON*      MOSUNNY   89  78  71 SW12      30.02F HX 102
CARMI*         MOSUNNY   91  77  62 S8        30.02F HX 105
$$

ABBREVIATIONS USED IN REMARKS
   TC - TEMPERATURE IN CELSIUS
  WCI - WIND CHILL INDEX
   HX - HEAT INDEX
  VSB - VISIBILITY
$$




USA.gov is the U.S. government's official web portal to all federal, state and local government web resources and services.